This is the latest recevied weather packets stored in our database for station/object EA1AHA-13. If no packets are shown the sender has not sent any weather packets the latest 10 day(s).
| Time | Temp. | Humidity | Pressure | Rain* | Wind** | Luminosity | Snow |
|---|---|---|---|---|---|---|---|
| 1777987565 | 15.56° C | 69% | 1013 hPa | 0 mm | - | - | - |
| 1777986989 | 16.11° C | 68% | 1013 hPa | 0 mm | - | - | - |
| 1777986365 | 15.56° C | 70% | 1013.1 hPa | 0 mm | - | - | - |
| 1777985789 | 16.11° C | 64% | 1012.9 hPa | 0 mm | - | - | - |
| 1777985165 | 15.56° C | 62% | 1012.6 hPa | 0 mm | - | - | - |
| 1777984589 | 15.56° C | 66% | 1013 hPa | 0 mm | - | - | - |
| 1777983965 | 15° C | 68% | 1012.7 hPa | 0 mm | - | - | - |
| 1777983388 | 15° C | 67% | 1013 hPa | 0 mm | - | - | - |
| 1777982764 | 15° C | 70% | 1012.8 hPa | 0 mm | - | - | - |
| 1777982189 | 14.44° C | 73% | 1013.1 hPa | 0 mm | - | - | - |
| 1777981564 | 15° C | 70% | 1013.2 hPa | 0 mm | - | - | - |
| 1777980989 | 15° C | 71% | 1012.8 hPa | 0 mm | - | - | - |
| 1777980365 | 15° C | 72% | 1013.2 hPa | 0 mm | - | - | - |
| 1777979789 | 15° C | 69% | 1012.9 hPa | 0 mm | - | - | - |
| 1777979165 | 14.44° C | 69% | 1013.1 hPa | 0 mm | - | - | - |
| 1777978588 | 15° C | 69% | 1013 hPa | 0 mm | - | - | - |
| 1777977794 | 15° C | 68% | 1013.2 hPa | 0 mm | - | - | - |
| 1777977102 | 14.44° C | 70% | 1013.4 hPa | 0 mm | - | - | - |
| 1777976478 | 15° C | 70% | 1013.2 hPa | 0 mm | - | - | - |
| 1777975901 | 13.89° C | 71% | 1013 hPa | 0 mm | - | - | - |
| 1777975278 | 13.89° C | 74% | 1013.1 hPa | 0 mm | - | - | - |
| 1777974701 | 13.33° C | 74% | 1013.1 hPa | 0 mm | - | - | - |
| 1777974077 | 13.33° C | 76% | 1012.9 hPa | 0 mm | - | - | - |
| 1777973501 | 12.78° C | 79% | 1013.1 hPa | 0 mm | - | - | - |
| 1777972877 | 12.78° C | 79% | 1013 hPa | 0 mm | - | - | - |
* Rain latest hour (hover to see other rain measurements)
** Current wind speed in m/s (hover to see current wind gust speed)